Content
SEND FEEDBACK

Daily
Averages
Monthly
Summary
United States of America

TACOMA, COLORADO


Home > North America > United States > Colorado
Elevation: 8449 feet     Latitude: 37 31N     Longitude: 107 47W

WEATHER
 
SELECT A DAY
Number of Records: 183,019;   Date Range: 1/1/95 - 8/12/14
 
SHARE

PRINT THIS DATA

[ ← Previous Day ]
WEATHER ALMANAC - JANUARY 3, 2013
[ Next Day → ]
[ °C ]   °F
Weather ElementAverageHighLow
Temperature5.2 °F24.1 °F (1:53 pm)-13 °F (6:53 am)
Dewpoint-2.9 °F5 °F (11:53 am)-17 °F (6:53 am)
Humidity72.2 %91 % (1:53 am)42 % (12:53 pm)
Barometer30.60 in30.69 in (7:53 am)30.51 in (2:53 am)
Wind Speed2.8 mph6.9 mph (2:53 pm)
Weather ElementAverage
Visibility10 mi
Wind DirectionENE (54.8 °)

Weather ElementTotal
Precipitation---
Heating Degree Days59.5 (Base 65)
Averaged from 21 records on January 3, 2013
WEATHER CONDITIONS BREAKOUT
WIND DIRECTION BREAKOUT
WEATHER BY HOUR - JANUARY 3, 2013
[ °C ]   °F
Local TimeTemperatureDewpointHumidityBarometerVisibilityWind DirectionWind SpeedGust SpeedPrecipitationEventsConditions
1:53 AM-8.0 °F-9.9 °F91 %30.53 in10.0 miNE (50°)3.5 mphClear
2:53 AM-2.9 °F-5.1 °F90 %30.51 in10.0 miENE (70°)3.5 mphClear
3:53 AM-2.9 °F-6.0 °F87 %30.53 in10.0 miNE (50°)3.5 mphClear
5:53 AM-8.0 °F-11.9 °F83 %30.60 in10.0 miNNE (30°)3.5 mphClear
6:53 AM-13.0 °F-17.0 °F82 %30.67 in10.0 miENE (60°)4.6 mphClear
7:53 AM-11.0 °F-14.1 °F86 %30.69 in10.0 miCalmClear
8:53 AM-2.0 °F-4.0 °F91 %30.67 in10.0 miCalmClear
9:53 AM3.0 °F-2.0 °F80 %30.68 in10.0 miNNE (30°)3.5 mphClear
10:53 AM8.1 °F3.0 °F80 %30.65 in10.0 miCalmClear
11:53 AM17.1 °F5.0 °F59 %30.58 in10.0 miENE (60°)4.6 mphClear
12:53 PM21.9 °F1.9 °F42 %30.54 in10.0 miCalmClear
1:53 PM24.1 °F3.9 °F42 %30.54 in10.0 miCalmClear
2:53 PM23.0 °F5.0 °F46 %30.52 in10.0 miENE (60°)6.9 mphClear
3:53 PM19.9 °F3.9 °F50 %30.52 in10.0 miENE (60°)3.5 mphClear
4:53 PM16.0 °F1.0 °F52 %30.56 in10.0 miCalmClear
6:53 PM14.0 °F3.0 °F62 %30.63 in10.0 miWNW (300°)3.5 mphClear
7:53 PM9.0 °F1.0 °F70 %30.65 in10.0 miNorth (360°)6.9 mphClear
8:53 PM5.0 °F-2.0 °F73 %30.61 in10.0 miCalmClear
9:53 PM3.0 °F-2.9 °F76 %30.61 in10.0 miNorth (10°)4.6 mphClear
10:53 PM0.0 °F-4.0 °F83 %30.61 in10.0 miNorth (10°)5.8 mphClear
11:53 PM-7.1 °F-9.0 °F91 %30.60 in10.0 miCalmClear
Hourly data recorded from KDRO, located miles away from Tacoma, Colorado







STORIES FROM OUR PARTNERS